Regional Weather Roundup
Issued by NWS

Home | Current Version | Previous Version | Graphics & Text | Print | Product List | Glossary Off
Versions: 1 2 3 4 5 6 7 8 9 10 11 12 13 14 15 16 17 18 19 20 21 22 23 24 25 26 27 28 29 30 31 32 33 34 35 36 37 38 39 40 41 42 43 44 45 46 47 48 49 50

000
ASUS43 KDTX 211201
RWRMI
MICHIGAN HOURLY REGIONAL WEATHER ROUNDUP
NATIONAL WEATHER SERVICE DETROIT/PONTIAC MI
800 AM EDT SAT OCT 21 2017

NOTE: "FAIR" INDICATES FEW OR NO CLOUDS BELOW 12,000 FEET WITH NO
SIGNIFICANT WEATHER AND/OR OBSTRUCTION TO VISIBILITY.

MIZ047>049-052>055-059>063-066>070-074>076-081>083-211300-
SOUTHEAST LOWER MICHIGAN

CITY           SKY/WX    TMP DP  RH WIND       PRES   REMARKS
ADRIAN         CLOUDY    47  46  97 CALM      30.22R FOG
6HR MIN TEMP:  46; 6HR MAX TEMP:  53;

ALMA           CLOUDY    53  48  83 S14       30.15S
ANN ARBOR      CLOUDY    42  42 100 W3        30.21R FOG
BAD AXE        PTCLDY    53  47  81 S6        30.18S
CARO           CLOUDY    51  47  87 CALM      30.17R
DETROIT CITY   CLOUDY    53  49  86 S3        30.22R
6HR MIN TEMP:  50; 6HR MAX TEMP:  58;

DETROIT        CLOUDY    53  49  86 SE3       30.22R
6HR MIN TEMP:  50; 6HR MAX TEMP:  57;

FLINT          PTCLDY    54  49  83 S6        30.18S
6HR MIN TEMP:  51; 6HR MAX TEMP:  61;

GROSSE ILE     PTCLDY    57  53  86 S5        30.21S
6HR MIN TEMP:  56; 6HR MAX TEMP:  59;

HILLSDALE      PTCLDY    52  48  87 S6        30.19S FOG
HOWELL         PTCLDY    51  49  92 SE3       30.19S
6HR MIN TEMP:  51; 6HR MAX TEMP:  58;


CITY           SKY/WX    TMP DP  RH WIND       PRES   REMARKS
JACKSON        PTCLDY    55  49  80 S5        30.19S
6HR MIN TEMP:  51; 6HR MAX TEMP:  59;

LAMBERTVILLE   CLOUDY    50  47  88 CALM      30.21R
6HR MIN TEMP:  50; 6HR MAX TEMP:  55;

LANSING        CLOUDY    56  48  74 S7        30.17S
6HR MIN TEMP:  54; 6HR MAX TEMP:  57;

LAPEER         FAIR      44  43  97 CALM      30.20R
6HR MIN TEMP:  44; 6HR MAX TEMP:  47;

MASON          CLOUDY    55  49  80 S6        30.18S
MONROE         PTCLDY    48  45  90 CALM      30.21R
6HR MIN TEMP:  47; 6HR MAX TEMP:  56;

MT. CLEMENS    MOCLDY    50  49  99 SE2       30.20R
6HR MIN TEMP:  47; 6HR MAX TEMP:  50;

PONTIAC        CLOUDY    53  49  86 S3        30.20R
6HR MIN TEMP:  48; 6HR MAX TEMP:  53;

PORT HOPE        N/A     59  49  69 SW6       30.15R
6HR MIN TEMP:  58; 6HR MAX TEMP:  62;

PORT HURON     CLOUDY    46  45  93 CALM      30.22R
TRI CITIES     CLOUDY    55  51  86 S7        30.17R
6HR MIN TEMP:  55; 6HR MAX TEMP:  58;

MIDLAND        FAIR      54  49  85 CALM      30.14S
6HR MIN TEMP:  51; 6HR MAX TEMP:  56;

TROY           CLOUDY    54  48  82 SW3       30.23R
SAGINAW HB     CLOUDY    52  48  87 S6        30.16S
$$
MIZ043>046-050>051-056>058-064>065-071>073-077>080-211300-
SOUTHWEST LOWER MICHIGAN

CITY           SKY/WX    TMP DP  RH WIND       PRES   REMARKS
BATTLE CREEK   PTCLDY    54  49  83 S6        30.17R
6HR MIN TEMP:  54; 6HR MAX TEMP:  59;

BENTON HARBOR  CLOUDY    57  48  72 SE9       30.11F
6HR MIN TEMP:  57; 6HR MAX TEMP:  63;

BIG RAPIDS     CLOUDY    49  47  90 CALM      30.11S
6HR MIN TEMP:  47; 6HR MAX TEMP:  52;

COLDWATER      MOCLDY    56  50  79 S6        30.17S
6HR MIN TEMP:  55; 6HR MAX TEMP:  60;

FREMONT        FAIR      56  49  76 S5        30.09F
HOLLAND        CLOUDY    56  49  77 S7        30.12S
6HR MIN TEMP:  52; 6HR MAX TEMP:  56;

GRAND RAPIDS   MOCLDY    53  50  89 S9        30.13S
6HR MIN TEMP:  52; 6HR MAX TEMP:  59;

IONIA          FAIR      51  47  86 S8        30.14S
6HR MIN TEMP:  50; 6HR MAX TEMP:  55;

KALAMAZOO      CLOUDY    56  47  71 S6        30.16S
6HR MIN TEMP:  54; 6HR MAX TEMP:  59;

LUDINGTON      CLOUDY    57  50  77 E5        30.04F
6HR MIN TEMP:  56; 6HR MAX TEMP:  67;

MARSHALL       PTCLDY    54  50  87 SE3       30.17S
6HR MIN TEMP:  53; 6HR MAX TEMP:  59;

MOUNT PLEASANT CLOUDY    54  50  87 CALM      30.13F
6HR MIN TEMP:  50; 6HR MAX TEMP:  61;

MUSKEGON       CLOUDY    59  49  69 SE7       30.10S
6HR MIN TEMP:  59; 6HR MAX TEMP:  66;

SOUTH HAVEN    MOCLDY    58  49  73 S3        30.12S
$$
MIZ016>042-211300-
NORTHERN LOWER MICHIGAN

CITY           SKY/WX    TMP DP  RH WIND       PRES   REMARKS
ALPENA         CLOUDY    43  41  93 SW6       30.11R
6HR MIN TEMP:  43; 6HR MAX TEMP:  48;

BEAVER ISLAND  PTCLDY    62  51  66 S9G16     30.01F
6HR MIN TEMP:  62; 6HR MAX TEMP:  66;

BELLAIRE       PTCLDY    57  49  76 SW3       30.06F
6HR MIN TEMP:  47; 6HR MAX TEMP:  57;

CADILLAC       CLOUDY    59  47  66 S7        30.09S
CHARLEVOIX     CLOUDY    59  49  69 SE5       30.06F
FRANKFORT      CLOUDY    61  50  67 S6        30.04S
GAYLORD        PTCLDY    54  47  77 S7        30.09S
6HR MIN TEMP:  52; 6HR MAX TEMP:  58;

GRAYLING       CLOUDY    40  37  91 CALM      30.11S
6HR MIN TEMP:  39; 6HR MAX TEMP:  57;

HARBOR SPRINGS PTCLDY    60  47  61 S6        30.06S
HOUGHTON LAKE  CLOUDY    49  45  86 S3        30.12S
6HR MIN TEMP:  45; 6HR MAX TEMP:  58;

MANISTEE       CLOUDY    57  51  80 E5        30.04S
OSCODA         CLOUDY    52  50  93 SW7       30.13S
6HR MIN TEMP:  52; 6HR MAX TEMP:  58;

PELLSTON       CLOUDY    58  48  69 SE7       30.05S
6HR MIN TEMP:  57; 6HR MAX TEMP:  66;

ROGERS CITY    PTCLDY    58  48  71 SW8       30.08S
TRAVERSE CITY  CLOUDY    64  48  56 S3        30.04S
6HR MIN TEMP:  64; 6HR MAX TEMP:  69;

$$
MIZ007>008-015-211300-
EASTERN UPPER MICHIGAN

CITY           SKY/WX    TMP DP  RH WIND       PRES   REMARKS
KINROSS        PTCLDY    53  49  86 SE9       30.04S
6HR MIN TEMP:  50; 6HR MAX TEMP:  60;

MACKINAC ISLAN CLOUDY    62  47  57 S7        30.03S
6HR MIN TEMP:  62; 6HR MAX TEMP:  64;

NEWBERRY       CLOUDY    58  55  87 S13G18    29.99S
6HR MIN TEMP:  58; 6HR MAX TEMP:  60;

S. S. MARIE    CLOUDY    50  48  93 E6        30.04S
6HR MIN TEMP:  50; 6HR MAX TEMP:  54;

MUNISING         N/A     61  51  70 S8        29.91S
6HR MIN TEMP:  60; 6HR MAX TEMP:  63;

$$
MIZ004>006-011>014-085-211300-
CENTRAL UPPER MICHIGAN

CITY           SKY/WX    TMP DP  RH WIND       PRES   REMARKS
MANISTIQUE     CLOUDY    58  52  81 S7        29.98S
6HR MIN TEMP:  54; 6HR MAX TEMP:  58;

ESCANABA       CLOUDY    59  53  80 S9        29.95S
6HR MIN TEMP:  57; 6HR MAX TEMP:  59;

MENOMINEE      CLOUDY    59  49  69 S7        29.96S
6HR MIN TEMP:  58; 6HR MAX TEMP:  64;

SAWYER-GWINN   CLEAR     55  48  76 S9        29.92F
$$
MIZ001>003-009>011-084-211300-
WESTERN UPPER MICHIGAN

CITY           SKY/WX    TMP DP  RH WIND       PRES   REMARKS
IRON MOUNTAIN  PTCLDY    54  46  74 SE6       29.92S
6HR MIN TEMP:  53; 6HR MAX TEMP:  60;

HOUGHTON       CLOUDY    62  44  51 S12       29.82S
6HR MIN TEMP:  61; 6HR MAX TEMP:  63;

COPPER HARBOR    N/A     61  47  59 SW9       29.83R
6HR MIN TEMP:  61; 6HR MAX TEMP:  64;

IRONWOOD       CLOUDY    61  47  59 S15G22    29.78S
6HR MIN TEMP:  61; 6HR MAX TEMP:  66;

$$

ABBREVIATIONS USED IN REMARKS
   TC - TEMPERATURE IN CELSIUS
  WCI - WIND CHILL INDEX
   HX - HEAT INDEX
  VSB - VISIBILITY





USA.gov is the U.S. government's official web portal to all federal, state and local government web resources and services.